CW6294 Weather Reports


Display with metric or nautical units.
time (UTC)temp
F
wind
direction
speed
MPH
gust
MPH
rain 1hr
in
rain 24hr
in
rain mn
in
humidity
%
barometer
mb
20260905115201 73 200 0.0 0.0 0.00 0.05 0.00 99 1009.8
20260905113657 73 200 0.0 2.0 0.00 0.05 0.00 99 1009.8
20260905112151 74 275 1.0 4.0 0.00 0.05 0.00 98 1009.9
20260905110649 74 275 0.0 0.0 0.00 0.05 0.00 98 1009.2
20260905105147 73 274 0.0 0.0 0.00 0.05 0.00 99 1009.1
20260905103648 73 229 0.0 0.0 0.00 0.05 0.00 100 1009.0
20260905102138 73 229 0.0 0.0 0.00 0.05 0.00 100 1008.9
20260905100630 73 229 0.0 0.0 0.00 0.05 0.00 100 1008.8
20260905095129 72 229 0.0 0.0 0.00 0.05 0.00 100 1008.9
20260905093625 72 229 0.0 0.0 0.00 0.05 0.00 100 1008.7
20260905092118 72 225 0.0 0.0 0.00 0.05 0.00 100 1008.7
20260905090616 72 225 0.0 0.0 0.00 0.05 0.00 100 1008.8
20260905085057 72 225 0.0 0.0 0.00 0.05 0.00 100 1008.8
20260905083554 72 225 0.0 0.0 0.00 0.05 0.00 100 1008.6
20260905082050 73 225 0.0 0.0 0.00 0.05 0.00 100 1008.6
20260905081240 73 225 0.0 0.0 0.00 0.05 0.00 100 1008.9
20260905075731 73 225 0.0 0.0 0.00 0.05 0.00 99 1009.0
20260905073530 74 225 0.0 0.0 0.00 0.05 0.00 99 1009.1
20260905072007 74 225 0.0 0.0 0.00 0.05 0.00 98 1009.0
20260905070504 75 225 0.0 0.0 0.00 0.05 0.00 97 1009.1
20260905065000 75 304 0.0 3.0 0.00 0.05 0.00 98 1009.2
20260905063448 74 279 2.0 7.0 0.00 0.05 0.00 99 1009.4
20260905061948 74 295 1.0 5.0 0.00 0.05 0.00 99 1009.6
20260905060446 74 287 0.0 2.0 0.00 0.05 0.00 99 1009.9
20260905054940 74 287 1.0 5.0 0.00 0.05 0.00 99 1010.2
20260905053440 74 278 0.0 1.0 0.00 0.05 0.00 99 1010.1
20260905051936 75 278 0.0 2.0 0.00 0.05 0.00 100 1010.3
20260905050434 75 279 1.0 5.0 0.00 0.06 0.00 100 1010.4
20260905044934 74 291 1.0 5.0 0.00 0.20 0.00 100 1010.4
20260905043429 74 284 1.0 2.0 0.00 0.45 0.00 100 1010.4
20260905042631 74 230 1.0 2.0 0.00 0.71 0.00 100 1010.6
20260905041135 74 288 0.0 2.0 0.00 0.99 0.00 100 1010.7
20260905034926 74 274 1.0 4.0 0.00 1.28 1.07 100 1010.9
20260905033426 74 288 1.0 4.0 0.00 1.55 1.07 100 1010.8
20260905031929 74 232 1.0 4.0 0.00 1.72 1.07 100 1010.8
20260905030413 74 314 1.0 4.0 0.00 1.72 1.07 100 1010.9
20260905024912 74 211 1.0 4.0 0.00 1.72 1.07 100 1011.1
20260905023406 74 198 1.0 3.0 0.00 1.72 1.07 100 1011.1
20260905021905 74 195 0.0 0.0 0.00 1.72 1.07 100 1010.8
20260905021110 74 195 0.0 0.0 0.00 1.72 1.07 100 1010.7
20260905015545 75 216 0.0 0.0 0.00 1.72 1.07 100 1010.8
20260905013355 75 217 0.0 0.0 0.00 1.72 1.07 100 1010.7
20260905011854 75 217 0.0 0.0 0.00 1.72 1.07 100 1010.2
20260905010350 75 204 0.0 4.0 0.00 1.72 1.07 100 1010.1
20260905004840 75 273 1.0 2.0 0.00 1.72 1.07 100 1010.0
20260905003339 75 271 1.0 6.0 0.00 1.72 1.07 100 1009.9
20260905001841 75 226 1.0 6.0 0.00 1.72 1.07 100 1010.1
20260905000333 76 221 1.0 5.0 0.00 1.72 1.07 100 1010.1
20260904235527 76 200 1.0 4.0 0.00 1.72 1.07 100 1010.3
20260904233313 76 294 0.0 2.0 0.00 1.72 1.07 100 1010.2
20260904231810 76 277 0.0 3.0 0.00 1.72 1.07 100 1009.9
20260904230305 76 176 0.0 4.0 0.00 1.72 1.07 100 1009.9
20260904224759 76 144 1.0 5.0 0.00 1.72 1.07 100 1009.9
20260904223253 76 192 1.0 5.0 0.00 1.72 1.07 100 1010.2
20260904221756 76 194 1.0 6.0 0.00 1.72 1.07 100 1010.5
20260904220253 76 217 1.0 5.0 0.03 1.72 1.07 100 1010.7
20260904214756 76 300 0.0 5.0 0.05 1.72 1.07 100 1010.7
20260904213945 76 301 1.0 4.0 0.05 1.72 1.07 99 1010.7
20260904211746 77 288 3.0 12.0 0.05 1.72 1.07 96 1011.1
20260904210249 84 98 3.0 19.0 0.02 1.69 1.04 84 1011.4
20260904204744 87 267 1.0 5.0 0.00 1.67 1.02 79 1011.0
20260904203237 88 292 1.0 7.0 0.00 1.67 1.02 77 1011.2
20260904201737 90 34 0.0 1.0 0.00 1.67 1.02 74 1011.0
20260904200950 91 278 0.0 2.0 0.00 1.67 1.02 73 1010.7
20260904194728 91 277 1.0 5.0 0.00 1.67 1.02 72 1010.5
20260904193224 91 252 3.0 9.0 0.00 1.67 1.02 72 1010.9
20260904191722 92 267 1.0 5.0 0.00 1.67 1.02 71 1010.7
20260904190222 92 281 2.0 8.0 0.00 1.67 1.02 69 1011.0
20260904184723 92 261 1.0 9.0 0.00 1.67 1.02 71 1011.4
20260904183221 91 276 2.0 10.0 0.00 1.67 1.02 70 1011.6
20260904181715 90 267 2.0 9.0 0.00 1.67 1.02 70 1011.8
20260904180212 90 285 1.0 7.0 0.00 1.67 1.02 71 1011.8
20260904174712 90 308 1.0 9.0 0.00 1.67 1.02 71 1011.9
20260904173213 89 270 3.0 11.0 0.00 1.67 1.02 71 1012.1
20260904171706 88 283 3.0 11.0 0.00 1.67 1.02 72 1012.1
20260904170207 87 316 3.0 12.0 0.00 1.67 1.02 72 1012.1
20260904164701 87 271 3.0 10.0 0.00 1.67 1.02 75 1012.3
20260904163158 87 275 3.0 10.0 0.00 1.67 1.02 78 1012.5
20260904161655 85 267 3.0 9.0 0.00 1.67 1.02 81 1012.7
20260904160158 85 271 3.0 9.0 0.00 1.67 1.02 81 1012.8
20260904154654 85 296 2.0 9.0 0.00 1.67 1.02 82 1012.8
20260904153152 83 299 4.0 10.0 0.00 1.67 1.02 83 1012.7
20260904151653 83 307 4.0 12.0 0.00 1.67 1.02 85 1012.8
20260904150152 82 283 4.0 12.0 0.00 1.67 1.02 86 1013.0
20260904144652 81 268 4.0 12.0 0.00 1.67 1.02 90 1012.9
20260904143156 80 230 4.0 10.0 0.00 1.67 1.02 92 1013.0
20260904141649 79 256 2.0 8.0 0.00 1.67 1.02 99 1012.9
20260904140857 77 302 2.0 6.0 0.00 1.67 1.02 100 1013.0
20260904135341 76 317 1.0 7.0 0.00 1.67 1.02 100 1012.8
20260904133148 75 285 1.0 6.0 0.00 1.67 1.02 100 1012.8
20260904132347 75 204 1.0 5.0 0.00 1.67 1.02 100 1012.6
20260904130148 74 289 1.0 5.0 0.00 1.67 1.02 100 1013.0
20260904124643 74 247 0.0 2.0 0.00 1.67 1.02 100 1013.1
20260904123143 73 204 0.0 2.0 0.00 1.67 1.02 100 1013.1
20260904121634 73 165 0.0 2.0 0.00 1.67 1.02 100 1012.8
20260904120134 72 45 0.0 1.0 0.00 1.67 1.02 100 1012.9